This demonstration page uses our WeatherBlox Daily Observations layout. Learn more.

Left ArrowRight Arrow

40.92501, -98.34201

Hourly Observations for July 9, 2021

Temp ( °F °C ) Dew Point ( °F °C ) Humidity (%) Winds ( mph kmh ) Pressure ( in mb ) Visibility ( mi km ) Precip ( " mm )
12:53 am 00:53 Clear 78 25.6 62 16.7 58 58 S 12 19 29.83 1010 10 16 0.00 0.00
1:33 am 01:33 Clear with Thunderstorms 75 23.9 63 17.2 66 66 N 18 30 29.88 1012 10 16 0.00 0.00
1:53 am 01:53 Windy with Storms Likely 79 26.1 63 17.2 58 58 S 21 33 29.83 1010 10 16 0.00 0.00
2:08 am 02:08 Partly Cloudy with Nearby Thunderstorms 77 25 63 17.2 62 62 SSW 12 19 29.80 1009 10 16 0.00 0.00
2:20 am 02:20 Mostly Clear 79 26.1 62 16.7 56 56 S 20 31 29.77 1008 10 16 0.00 0.00
2:53 am 02:53 Clear 77 25 63 17.2 62 62 S 15 24 29.82 1010 10 16 0.00 0.00
3:13 am 03:13 Clear with Nearby Thunderstorms 79 26.1 62 16.7 56 56 S 17 28 29.77 1008 10 16 0.00 0.00
3:39 am 03:39 Clear 79 26.1 62 16.7 56 56 S 15 24 29.77 1008 10 16 0.00 0.00
3:53 am 03:53 Clear with Nearby Thunderstorms 78 25.6 62 16.7 58 58 S 16 26 29.83 1010 10 16 0.00 0.00
4:10 am 04:10 Clear with Thunderstorms 78 25.6 63 17.2 60 60 SSW 6 9 29.82 1010 10 16 0.00 0.00
4:36 am 04:36 Mostly Cloudy with Nearby Thunderstorms 75 23.9 65 18.3 71 71 E 15 24 29.83 1010 8 13 0.00 0.00
4:46 am 04:46 Mostly Cloudy with Thunderstorms 74 23.3 65 18.3 74 74 SE 12 19 29.84 1010 8 13 0.01 0.25
4:53 am 04:53 Mostly Cloudy with Thunderstorms 74 23.3 65 18.3 74 74 E 12 19 29.88 1012 10 16 0.01 0.25
5:07 am 05:07 Mostly Cloudy 75 23.9 66 18.9 74 74 SE 12 19 29.85 1011 10 16 0.00 0.00
5:31 am 05:31 Mostly Cloudy with Nearby Thunderstorms 75 23.9 65 18.3 71 71 S 10 17 29.86 1011 10 16 0.00 0.00
5:48 am 05:48 Cloudy with Thunderstorms 73 23 66 19 78 78 NNW 15 24 29.93 1014 10 16 0.00 0.00
5:53 am 05:53 Cloudy with Thunderstorms 73 22.8 66 18.9 79 79 N 9 15 29.96 1015 9 14 0.00 0.00
6:33 am 06:33 Cloudy with Thunderstorms 73 22.8 66 18.9 79 79 SE 13 20 29.81 1010 9 14 0.01 0.25
6:47 am 06:47 Cloudy with Strong Thunderstorms 73 23 66 19 78 78 S 24 39 29.79 1009 2 3 0.02 0.51
6:53 am 06:53 Windy with Storms Likely 73 22.8 66 18.9 79 79 SSW 20 31 29.85 1011 2 3 0.11 2.79
6:55 am 06:55 Windy with Storms Likely 74 23.3 66 18.9 76 76 S 24 39 29.82 1010 3 5 0.00 0.00
7:12 am 07:12 Mostly Cloudy with Nearby Thunderstorms 76 24.4 64 17.8 67 67 SW 22 35 29.84 1011 10 16 0.01 0.25
7:27 am 07:27 Mostly Cloudy with Thunderstorms 74 23.3 64 17.8 71 71 S 12 19 29.81 1009 8 13 0.02 0.51
7:53 am 07:53 Windy with Storms Likely 73 22.8 66 18.9 79 79 S 22 35 29.81 1010 7 11 0.02 0.51
8:16 am 08:16 Mostly Sunny 74 23.3 63 17.2 69 69 S 18 30 29.76 1008 10 16 0.00 0.00
8:53 am 08:53 Partly Cloudy with Light Rain 74 23.3 64 17.8 71 71 S 18 30 29.83 1010 10 16 0.00 0.00
9:53 am 09:53 Sunny 80 26.7 66 18.9 62 62 S 14 22 29.85 1011 10 16 0.00 0.00
10:53 am 10:53 Sunny 85 29.4 65 18.3 51 51 SSE 13 20 29.86 1011 10 16 0.00 0.00
11:53 am 11:53 Sunny 89 31.7 65 18.3 45 45 S 12 19 29.87 1011 10 16 0.00 0.00
12:53 pm 12:53 Sunny 90 32.2 68 20 48 48 S 12 19 29.87 1011 10 16 0.00 0.00
1:53 pm 13:53 Sunny 95 35 69 20.6 43 43 SSW 10 17 29.85 1011 10 16 0.00 0.00
2:53 pm 14:53 Sunny 95 35 70 21.1 44 44 SSW 9 15 29.85 1011 10 16 0.00 0.00
3:53 pm 15:53 Sunny 95 35 69 20.6 43 43 SE 6 9 29.84 1010 10 16 0.00 0.00
4:53 pm 16:53 Sunny 94 34.4 70 21.1 46 46 SE 9 15 29.82 1010 10 16 0.00 0.00
5:53 pm 17:53 Sunny 94 34.4 71 21.7 48 48 SE 7 11 29.82 1010 10 16 0.00 0.00
6:53 pm 18:53 Sunny 93 33.9 73 22.8 52 52 ESE 8 13 29.81 1010 10 16 0.00 0.00
7:53 pm 19:53 Sunny 88 31.1 75 23.9 66 66 ENE 8 13 29.81 1010 10 16 0.00 0.00
8:53 pm 20:53 Sunny 84 28.9 76 24.4 77 77 ENE 8 13 29.81 1010 10 16 0.00 0.00
9:53 pm 21:53 Clear 82 27.8 74 23.3 77 77 E 8 13 29.75 1007 10 16 0.00 0.00
10:03 pm 22:03 Clear with Nearby Thunderstorms 81 27.2 74 23.3 79 79 ESE 8 13 29.65 1004 10 16 0.00 0.00
10:17 pm 22:17 Partly Cloudy with Thunderstorms 82 27.8 74 23.3 77 77 NE 10 17 29.70 1006 10 16 0.00 0.00
10:30 pm 22:30 Mostly Cloudy with Thunderstorms 70 21.1 64 17.8 82 82 NNW 64 104 29.81 1010 3 4 0.00 0.00
10:32 pm 22:32 Mostly Cloudy with Thunderstorms 67 19.4 63 17.2 87 87 NNW 62 100 29.85 1011 1 2 0.00 0.00
10:38 pm 22:38 Very Windy with Storms Likely 64 17.8 61 16.1 90 90 NNW 38 61 29.99 1015 0 0 0.04 1.02
10:48 pm 22:48 Cloudy with Strong Thunderstorms 64 18 63 17 94 94 NW 17 28 29.95 1014 0 0 0.56 14.22
10:51 pm 22:51 Cloudy with Strong Thunderstorms 64 18 63 17 94 94 VRB 6 9 29.95 1014 1 1 0.73 18.54
10:53 pm 22:53 Cloudy with Strong Thunderstorms 64 17.8 63 17.2 96 96 VRB 3 6 29.95 1014 1 1 0.82 20.83
11:00 pm 23:00 Cloudy with Strong Thunderstorms 64 17.8 63 17.2 96 96 E 16 26 29.92 1013 1 2 0.24 6.10
11:08 pm 23:08 Cloudy with Thunderstorms 64 17.8 62 16.7 93 93 SW 16 26 29.93 1013 3 5 0.32 8.13
11:24 pm 23:24 Cloudy with Thunderstorms 64 17.8 62 16.7 93 93 SSE 17 28 29.85 1011 3 4 0.35 8.89
11:35 pm 23:35 Cloudy with Nearby Thunderstorms 64 17.8 61 16.1 90 90 SSE 26 43 29.77 1008 8 13 0.36 9.14
11:53 pm 23:53 Mostly Cloudy with Nearby Thunderstorms 64 17.8 61 16.1 90 90 SE 22 35 29.72 1006 10 16 0.36 9.14

Powered by AerisWeather